[Iaude] MPEC G140: 2024 GT2 [a=1.90,e=0.47,i=1.3,H=27.4]

mpec at cfa.harvard.edu mpec at cfa.harvard.edu
Wed Apr 10 16:57:46 EDT 2024


M.P.E.C. 2024-G140                               Issued 2024 April 10, 20:56 UT

     The Minor Planet Electronic Circulars contain information on unusual
         minor planets, routine data on comets and natural satellites,
         and occasional editorial announcements.  They are published
    on behalf of Division F of the International Astronomical Union by the
          Minor Planet Center, Smithsonian Astrophysical Observatory,
                          Cambridge, MA 02138, U.S.A.
			  
             Prepared using the Tamkin Foundation Computer Network

                              MPC at CFA.HARVARD.EDU
            URL https://www.minorplanetcenter.net/    ISSN 1523-6714

                                    2024 GT2                                    


Observations:
     K24G02T* C2024 04 09.26292010 22 48.478+07 55 31.80         20.71wXEG140F52
     K24G02T  C2024 04 09.27276210 22 54.272+07 53 31.08         20.47wXEG140F52
     K24G02T  C2024 04 09.28263810 23 00.066+07 51 28.97         20.27wXEG140F52
     K24G02T  C2024 04 09.38566610 24 01.973+07 29 26.12         20.06GVEG140F51
     K24G02T  C2024 04 09.38648410 24 02.488+07 29 15.24         20.19GVEG140F51
     K24G02T 0B2024 04 09.81635 10 30 55.222+05 52 41.05         20.7 VZEG140M49
     K24G02T 0B2024 04 09.82106 10 30 58.877+05 51 25.88         19.9 VZEG140M49
     K24G02T 0B2024 04 09.82566 10 31 02.484+05 50 12.95         20.2 VZEG140M49
     K24G02T KB2024 04 09.85269710 31 33.09 +05 31 50.1          19.8 GXEG140958
     K24G02T KB2024 04 09.85711610 31 36.92 +05 30 39.3          19.8 GXEG140958
     K24G02T KB2024 04 09.86169910 31 40.84 +05 29 23.4          19.7 GXEG140958
     K24G02T KC2024 04 10.17340 10 37 34.65 +03 57 17.0          18.5 RVEG140G58
     K24G02T KC2024 04 10.17606 10 37 37.31 +03 56 25.8          18.8 RVEG140G58
     K24G02T KC2024 04 10.18127 10 37 42.53 +03 54 44.3          18.5 RVEG140G58
     K24G02T KC2024 04 10.18502 10 37 46.29 +03 53 31.6          18.7 RVEG140G58
     K24G02T KB2024 04 10.85984410 54 13.61 -00 33 46.3          18.6 GXEG140I93
     K24G02T KB2024 04 10.86104310 54 15.47 -00 34 20.0          19.1 GXEG140I93
     K24G02T KB2024 04 10.86216010 54 17.19 -00 34 53.2          19.3 GXEG140I93

Observer details:
958 Observatoire de Dax.  Observer P. Dupouy.  0.50-m f/4.5 Reflector + CMO.
F51 Pan-STARRS 1, Haleakala.  Observers J. Herman, T. Lowe, P. Minguez, A.
    Schultz, I. Smith.  Measurers K. Chambers, T. de Boer, J. Fairlamb, H.
    Gao, M. Huber, C.-C. Lin, E. Magnier, Y. Ramanjooloo, R. Wainscoat, R.
    Weryk.  1.8-m Ritchey-Chretien + CCD.
F52 Pan-STARRS 2, Haleakala.  Observers J. Herman, T. Lowe, P. Minguez, A.
    Schultz, I. Smith.  Measurers K. Chambers, T. de Boer, J. Fairlamb, H.
    Gao, M. Huber, C.-C. Lin, E. Magnier, Y. Ramanjooloo, R. Wainscoat, R.
    Weryk.  1.8-m Ritchey-Chretien + CCD.
G58 Chabot Space and Science Center, Oakland.  Observer G. McKeegan.  0.9-m
    f/4.5 Cassegrain+CCD.
I93 St Pardon de Conques.  Observer F. Losse.  0.40-m f/3.7 reflector + CCD.
M49 IAS Remote Observatory, Hakos.  Observers D. Husar, M. Junius.  Measurer
    D. Husar.  0.25-m f/4.5 reflector + CMO.

Orbital elements:
2024 GT2                                                 Earth MOID = 0.0040 AU
Epoch 2024 Mar. 31.0 TT = JDT 2460400.5                 MPC                     
M 351.90856              (2000.0)            P               Q                  
n   0.37675825     Peri.  195.86807     -0.83558190     +0.54932555             
a   1.8985740      Node    17.45756     -0.50158905     -0.75791474             
e   0.4715838      Incl.    1.27157     -0.22407880     -0.35186174             
P   2.62           H   27.47          G   0.15           U   7                  
Residuals in seconds of arc
240409 F52  0.1+  0.0     240409 M49  0.3+  0.3-    240410 G58  0.0   0.3+
240409 F52  0.1+  0.2+    240409 M49  0.5+  0.3+    240410 G58  0.1-  0.3-
240409 F52  0.1-  0.2+    240409 958  1.0-  0.5-    240410 G58  0.2-  0.2-
240409 F51  0.1-  0.1-    240409 958  0.2+  1.2+    240410 I93  0.2-  0.1-
240409 F51  0.0   0.1-    240409 958  0.6+  0.6+    240410 I93  0.0   0.5+
240409 M49  0.6+  0.3-    240410 G58  0.1+  0.1+    240410 I93  0.0   0.7-

Ephemeris:
2024 GT2                 a,e,i = 1.90, 0.47, 1                   q = 1.0032
Date    TT    R. A. (2000) Decl.     Delta      r    Elong.  Phase     V
2024 03 11    09 46 14.4 +19 06 03   0.1330  1.1120   151.3    25.4    24.5
...
2024 03 26    09 41 29.4 +18 50 16   0.07160 1.0499   135.7    41.6    23.5
...
2024 04 03    09 48 51.9 +16 38 00   0.04041 1.0264   130.3    48.0    22.4
...
2024 04 09    10 19 21.7 +08 48 42   0.01760 1.0139   134.2    45.1    20.5
2024 04 10    10 34 01.9 +04 56 46   0.01399 1.0123   137.9    41.6    19.9
2024 04 11    10 58 20.6 -01 33 05   0.01058 1.0108   144.4    35.2    19.1
...
2024 04 17    20 03 58.7 -35 31 18   0.01569 1.0043    91.4    87.7    21.5
...
2024 04 25    20 59 43.0 -26 40 50   0.04575 1.0032    85.3    92.1    24.0
...
2024 05 10    21 14 26.0 -23 51 44   0.1005  1.0246    95.7    78.7    25.3

A. U. Tomatic                (C) Copyright 2024 MPC           M.P.E.C. 2024-G140





More information about the Iaude mailing list